TimeEDT,TemperatureF,Dew PointF,Humidity,Sea Level PressureIn,VisibilityMPH,Wind Direction,Wind SpeedMPH,Gust SpeedMPH,PrecipitationIn,Events,Conditions,WindDirDegrees,DateUTC
12:54 AM,77.0,73.9,90,30.23,10.0,East,5.8,-,N/A,,Clear,90,2013-07-14 04:54:00
1:54 AM,75.9,73.0,91,30.23,10.0,Calm,Calm,-,N/A,,Clear,0,2013-07-14 05:54:00
2:54 AM,75.9,73.0,91,30.23,10.0,East,4.6,-,N/A,,Clear,90,2013-07-14 06:54:00
3:54 AM,75.9,73.0,91,30.23,10.0,East,3.5,-,N/A,,Clear,80,2013-07-14 07:54:00
4:54 AM,75.9,73.9,94,30.23,10.0,East,4.6,-,N/A,,Clear,80,2013-07-14 08:54:00
5:54 AM,75.9,73.9,94,30.25,10.0,East,3.5,-,N/A,,Clear,90,2013-07-14 09:54:00
6:54 AM,77.0,73.9,90,30.27,10.0,East,4.6,-,N/A,,Clear,80,2013-07-14 10:54:00
7:54 AM,79.0,73.9,84,30.27,10.0,East,5.8,-,N/A,,Partly Cloudy,100,2013-07-14 11:54:00
8:54 AM,81.0,75.0,82,30.29,10.0,East,5.8,-,0.01,,Partly Cloudy,100,2013-07-14 12:54:00
9:54 AM,84.0,75.9,76,30.29,10.0,ESE,11.5,-,N/A,,Mostly Cloudy,120,2013-07-14 13:54:00
10:54 AM,84.9,73.0,67,30.30,10.0,ESE,8.1,-,N/A,,Clear,110,2013-07-14 14:54:00
11:54 AM,87.1,73.0,63,30.30,10.0,ESE,8.1,-,N/A,,Clear,110,2013-07-14 15:54:00
12:54 PM,88.0,72.0,59,30.30,10.0,SE,6.9,-,N/A,,Clear,140,2013-07-14 16:54:00
1:54 PM,88.0,73.0,61,30.29,10.0,ESE,8.1,-,N/A,,Clear,120,2013-07-14 17:54:00
2:54 PM,88.0,73.0,61,30.28,10.0,ESE,11.5,-,N/A,,Partly Cloudy,110,2013-07-14 18:54:00
3:54 PM,87.1,71.1,59,30.27,10.0,ESE,5.8,-,N/A,,Clear,110,2013-07-14 19:54:00
4:54 PM,87.1,73.0,63,30.26,10.0,ESE,6.9,-,N/A,,Partly Cloudy,110,2013-07-14 20:54:00
5:54 PM,84.9,73.9,69,30.26,10.0,East,10.4,27.6,N/A,,Partly Cloudy,90,2013-07-14 21:54:00
6:54 PM,84.0,73.9,72,30.26,10.0,East,8.1,-,N/A,,Clear,90,2013-07-14 22:54:00
7:54 PM,82.0,73.9,76,30.27,10.0,East,5.8,-,N/A,,Partly Cloudy,100,2013-07-14 23:54:00
8:54 PM,81.0,75.0,82,30.28,10.0,East,4.6,-,0.00,Rain,Light Rain,100,2013-07-15 00:54:00
9:54 PM,80.1,73.9,81,30.29,10.0,East,3.5,-,0.00,,Clear,80,2013-07-15 01:54:00
10:54 PM,78.1,73.9,87,30.30,10.0,East,3.5,-,N/A,,Clear,80,2013-07-15 02:54:00
11:54 PM,78.1,73.9,87,30.30,10.0,ENE,3.5,-,N/A,,Clear,70,2013-07-15 03:54:00